{"data":{"norad_id":68913,"epoch":"2026-05-25T02:38:06.722592Z","epoch_age_seconds":58677,"freshness":"FRESH","line1":"1 68913U 26097U   26145.10980003  .00044248  00000+0  80913-3 0  9995","line2":"2 68913  97.2855 340.8647 0000370 103.1476 256.9817 15.49244337  3945","mean_motion":15.49244337,"eccentricity":3.7e-5,"inclination_deg":97.2855,"raan_deg":340.8647,"arg_perigee_deg":103.1476,"mean_anomaly_deg":256.9817,"bstar":0.00080913,"rev_number":394,"period_min":92.948540498683,"perigee_km":418.68391670468,"apogee_km":419.1869000629,"semimajor_km":6797.0724083838,"source":"CELESTRAK","updated_at":"2026-05-25T13:38:22.070149Z"}}